Weather History for South Hill, VA

Change the Weather History Date:

Friday, December 23, 2011

  Actual Average (KEMV) Record (KEMV)
Temperature  
Mean Temperature 57 °F -  
Max Temperature 66 °F 50 °F 71 °F (2007)
Min Temperature 48 °F 28 °F 5 °F (1989)
Degree Days  
Heating Degree Days 8    
Growing Degree Days 7 (Base 50)    
Moisture  
Dew Point 44 °F    
Average Humidity 60    
Maximum Humidity 88    
Minimum Humidity 42    
Precipitation  
Precipitation 0.00 in - - ()
Sea Level Pressure  
Sea Level Pressure 30.10 in    
Wind  
Wind Speed 9 mph (West)    
Max Wind Speed 16 mph    
Max Gust Speed 26 mph    
Visibility 10 miles    
Events Rain    
Averages and records for this station are not official NWS values.
T = Trace of Precipitation, MM = Missing Value Source: NWS Daily Summary

Daily Weather History Graph

Daily Weather History Graph

Search for Another Location

Airport:

Trip Planner

Search our weather history database for the weather conditions in past years. The results will help you decide how hot, cold, wet, or windy it might be!

Date:

Astronomy

Dec. 23, 2011 Rise Set
Actual Time 7:21 AM EST 5:00 PM EST
Civil Twilight 6:52 AM EST 5:29 PM EST
Nautical Twilight 6:20 AM EST 6:02 PM EST
Astronomical Twilight 5:48 AM EST 6:33 PM EST
Moon 6:08 AM EST (12/23) 4:07 PM EST (12/23)
Length of Visible Light 10h 36m
Length of Day
9h 39m
Waning Crescent, 1% of the Moon is Illuminated
Dec 23
Waning Crescent
Dec 24
New
Jan 1
First Quarter
Jan 9
Full
Jan 16
Last Quarter

Hourly Weather History & Observations

Time (EST) Temp. Windchill Dew Point Humidity Pressure Visibility Wind Dir Wind Speed Gust Speed Precip Events Conditions
12:15 AM 64.4 °F - 60.8 °F 88% 29.91 in 10.0 mi South 13.8 mph 20.7 mph N/A Rain Light Rain
12:35 AM 64.4 °F - 59.0 °F 83% 29.90 in 10.0 mi South 15.0 mph - N/A   Scattered Clouds
12:55 AM 64.4 °F - 59.0 °F 83% 29.88 in 10.0 mi SSW 11.5 mph 19.6 mph N/A Rain Light Rain
1:15 AM 64.4 °F - 59.0 °F 83% 29.88 in 10.0 mi SSW 15.0 mph - N/A   Scattered Clouds
1:35 AM 64.4 °F - 57.2 °F 77% 29.87 in 10.0 mi SSW 13.8 mph - N/A   Clear
1:55 AM 64.4 °F - 57.2 °F 77% 29.88 in 10.0 mi SSW 15.0 mph 23.0 mph N/A   Clear
2:15 AM 64.4 °F - 57.2 °F 77% 29.89 in 10.0 mi SSW 15.0 mph 23.0 mph N/A   Scattered Clouds
2:35 AM 64.4 °F - 57.2 °F 77% 29.90 in 10.0 mi SSW 12.7 mph 18.4 mph N/A   Overcast
2:55 AM 64.4 °F - 57.2 °F 77% 29.91 in 10.0 mi SSW 11.5 mph 19.6 mph N/A   Overcast
3:15 AM 64.4 °F - 57.2 °F 77% 29.91 in 10.0 mi SSW 13.8 mph 20.7 mph N/A   Overcast
3:35 AM 66.2 °F - 57.2 °F 73% 29.92 in 10.0 mi SW 11.5 mph 26.5 mph N/A   Overcast
3:55 AM 64.4 °F - 55.4 °F 73% 29.92 in 10.0 mi SSW 16.1 mph 24.2 mph N/A   Overcast
4:15 AM 64.4 °F - 55.4 °F 73% 29.93 in 10.0 mi SW 13.8 mph 20.7 mph N/A   Overcast
4:35 AM 64.4 °F - 55.4 °F 73% 29.93 in 10.0 mi WSW 9.2 mph 20.7 mph N/A   Overcast
4:55 AM 62.6 °F - 51.8 °F 68% 29.95 in 10.0 mi WNW 10.4 mph 21.9 mph N/A   Overcast
5:15 AM 60.8 °F - 53.6 °F 77% 29.97 in 10.0 mi WNW 10.4 mph 16.1 mph N/A   Overcast
5:35 AM 60.8 °F - 53.6 °F 77% 29.99 in 10.0 mi WNW 4.6 mph - N/A   Mostly Cloudy
5:55 AM 60.8 °F - 51.8 °F 72% 30.01 in 10.0 mi West 5.8 mph - N/A   Overcast
6:15 AM 59.0 °F - 48.2 °F 67% 30.02 in 10.0 mi NW 8.1 mph - N/A   Overcast
6:35 AM 57.2 °F - 44.6 °F 63% 30.05 in 10.0 mi WNW 8.1 mph 19.6 mph N/A   Overcast
7:15 AM 55.4 °F - 42.8 °F 63% 30.08 in 10.0 mi WNW 4.6 mph - N/A   Overcast
7:35 AM 55.4 °F - 41.0 °F 58% 30.09 in 10.0 mi WNW 5.8 mph - N/A   Mostly Cloudy
7:55 AM 53.6 °F - 41.0 °F 62% 30.10 in 10.0 mi West 5.8 mph - N/A   Scattered Clouds
8:15 AM 53.6 °F - 42.8 °F 67% 30.12 in 10.0 mi West 3.5 mph - N/A   Scattered Clouds
8:35 AM 53.6 °F - 42.8 °F 67% 30.13 in 10.0 mi West 4.6 mph - N/A   Clear
8:55 AM 53.6 °F - 42.8 °F 67% 30.13 in 10.0 mi WNW 4.6 mph - N/A   Clear
9:15 AM 53.6 °F - 41.0 °F 62% 30.15 in 10.0 mi NW 3.5 mph - N/A   Mostly Cloudy
9:35 AM 55.4 °F - 39.2 °F 54% 30.16 in 10.0 mi WNW 4.6 mph - N/A   Overcast
10:15 AM 55.4 °F - 39.2 °F 54% 30.18 in 10.0 mi NW 3.5 mph - N/A   Overcast
10:35 AM 57.2 °F - 39.2 °F 51% 30.17 in 10.0 mi Calm Calm - N/A   Overcast
10:55 AM 57.2 °F - 39.2 °F 51% 30.17 in 10.0 mi NW 3.5 mph - N/A   Scattered Clouds
11:15 AM 59.0 °F - 39.2 °F 48% 30.16 in 10.0 mi WNW 4.6 mph - N/A   Clear
11:35 AM 59.0 °F - 39.2 °F 48% 30.15 in 10.0 mi NW 6.9 mph - N/A   Clear
11:55 AM 60.8 °F - 41.0 °F 48% 30.15 in 10.0 mi NW 3.5 mph - N/A   Clear
12:15 PM 60.8 °F - 39.2 °F 45% 30.15 in 10.0 mi NW 3.5 mph - N/A   Clear
12:35 PM 60.8 °F - 39.2 °F 45% 30.14 in 10.0 mi WNW 4.6 mph - N/A   Clear
1:15 PM 60.8 °F - 39.2 °F 45% 30.13 in 10.0 mi WNW 4.6 mph - N/A   Clear
1:35 PM 60.8 °F - 39.2 °F 45% 30.13 in 10.0 mi NW 4.6 mph - N/A   Clear
1:55 PM 60.8 °F - 39.2 °F 45% 30.13 in 10.0 mi NW 3.5 mph - N/A   Scattered Clouds
2:15 PM 60.8 °F - 39.2 °F 45% 30.14 in 10.0 mi WNW 8.1 mph - N/A   Mostly Cloudy
2:35 PM 60.8 °F - 37.4 °F 42% 30.14 in 10.0 mi West 3.5 mph - N/A   Scattered Clouds
2:55 PM 60.8 °F - 37.4 °F 42% 30.15 in 10.0 mi WNW 4.6 mph - N/A   Scattered Clouds
3:15 PM 59.0 °F - 37.4 °F 45% 30.15 in 10.0 mi Calm Calm - N/A   Clear
3:35 PM 60.8 °F - 39.2 °F 45% 30.15 in 10.0 mi Calm Calm - N/A   Clear
3:55 PM 59.0 °F - 37.4 °F 45% 30.16 in 10.0 mi Calm Calm - N/A   Clear
4:15 PM 59.0 °F - 37.4 °F 45% 30.17 in 10.0 mi Calm Calm - N/A   Scattered Clouds
4:35 PM 57.2 °F - 37.4 °F 48% 30.18 in 10.0 mi WNW 3.5 mph - N/A   Scattered Clouds
4:55 PM 57.2 °F - 37.4 °F 48% 30.19 in 10.0 mi WNW 4.6 mph - N/A   Clear
5:35 PM 55.4 °F - 37.4 °F 51% 30.21 in 10.0 mi WNW 3.5 mph - N/A   Clear
5:55 PM 53.6 °F - 37.4 °F 54% 30.23 in 10.0 mi WNW 6.9 mph - N/A   Clear
6:15 PM 53.6 °F - 37.4 °F 54% 30.24 in 10.0 mi WNW 4.6 mph - N/A   Clear
6:35 PM 51.8 °F - 35.6 °F 54% 30.25 in 10.0 mi NW 4.6 mph - N/A   Clear
6:55 PM 51.8 °F - 35.6 °F 54% 30.25 in 10.0 mi WNW 4.6 mph - N/A   Scattered Clouds
7:15 PM 51.8 °F - 35.6 °F 54% 30.26 in 10.0 mi WNW 3.5 mph - N/A   Overcast
7:55 PM 50.0 °F - 35.6 °F 58% 30.27 in 10.0 mi Calm Calm - N/A   Overcast
8:15 PM 50.0 °F - 35.6 °F 58% 30.28 in 10.0 mi Calm Calm - N/A   Overcast
8:35 PM 50.0 °F - 35.6 °F 58% 30.28 in 10.0 mi Calm Calm - N/A   Overcast
8:55 PM 50.0 °F - 35.6 °F 58% 30.29 in 10.0 mi WNW 3.5 mph - N/A   Overcast
9:15 PM 50.0 °F - 35.6 °F 58% 30.29 in 10.0 mi NW 3.5 mph - N/A   Overcast
9:35 PM 50.0 °F - 33.8 °F 54% 30.29 in 10.0 mi WNW 4.6 mph - N/A   Overcast
9:55 PM 48.2 °F - 33.8 °F 58% 30.29 in 10.0 mi WNW 4.6 mph - N/A   Overcast
10:15 PM 48.2 °F - 33.8 °F 58% 30.29 in 10.0 mi WNW 4.6 mph - N/A   Overcast
10:35 PM 48.2 °F - 33.8 °F 58% 30.30 in 10.0 mi NW 4.6 mph - N/A   Overcast
10:55 PM 48.2 °F - 33.8 °F 58% 30.30 in 10.0 mi WNW 4.6 mph - N/A   Mostly Cloudy
11:15 PM 46.4 °F 45.2 °F 33.8 °F 62% 30.31 in 10.0 mi WNW 3.5 mph - N/A   Mostly Cloudy
11:35 PM 44.6 °F - 33.8 °F 66% 30.31 in 10.0 mi Calm Calm - N/A   Scattered Clouds
11:55 PM 44.6 °F - 33.8 °F 66% 30.31 in 10.0 mi Calm Calm - N/A   Clear